(282008) = 2007 NV4 = 2002 JY120 = 2011 HV57

Discovered at Palomar on 2002-05-05 by NEAT.

Orbit

Orbit type: Main Belt

Note: WebGL enabled browser required.

epoch2024-03-31.0
epoch JD2460400.5
perihelion date2021-02-05.24058
perihelion JD2459250.74058
argument of perihelion (°)191.98381
ascending node (°)128.00186
inclination (°)14.31644
eccentricity0.1616364
perihelion distance (AU)2.2642751
Tisserand w.r.t. Jupiter3.3
ΔV w.r.t. Earth (km/sec)10.4
semimajor axis (AU)2.7008271
mean anomaly (°)255.30871
mean daily motion (°/day)0.22205400
aphelion distance (AU)3.137
period (years)4.44
P-vector [x]0.76080254
P-vector [y]-0.57314110
P-vector [z]-0.30444831
Q-vector [x]0.61904135
Q-vector [y]0.78174179
Q-vector [z]0.07528335
absolute magnitude15.86
phase slope0.15
uncertainty0
referenceMPEC 2024-F62
observations used512
oppositions18
arc length (days)7990
first opposition used2002
last opposition used2024
residual rms (arc-secs)0.72
perturbers coarse indicatorM-v
perturbers precise indicator003Ek
first observation date used2002-05-05.0
last observation date used2024-03-20.0
computer nameMPCLINUX
JD of orbit computation2456700.174138
perihelion JD uncertainty (days)1.0928E-04
argument of perihelion uncertainty (°)3.7725E-05
ascending node uncertainty (°)3.0034E-05
inclination uncertainty (°)6.4718E-06
eccentricity uncertainty 5.4603E-08
perihelion distance uncertainty (AU)1.4895E-07
Minimum Orbit Intersection Distances (in AU)
for orbit epoch: 2460400.5, reference: E2024-G04
Mercury1.84302
Venus1.53611
Earth1.2524
Mars0.87529
Jupiter2.16173
Saturn6.00441
Uranus15.3463
Neptune27.067

Observations

532 total observations over interval: 2002 05 05.39548 – 2024 03 20.430354
These data are available for download (format description).

Date (UT) J2000 RA J2000 Dec Magn Location Ref
2002 05 05.39548 14 50 36.54 +07 09 09.8 20.0   644 – Palomar Mountain/NEAT MPS 57768
2002 05 05.40707 14 50 35.89 +07 09 12.3 20.2   644 – Palomar Mountain/NEAT MPS 57768
2002 05 05.41751 14 50 35.39 +07 09 14.3 19.9   644 – Palomar Mountain/NEAT MPS 57768
2002 05 07.28212 14 48 59.43 +07 15 24.0 19.0   704 – Lincoln Laboratory ETS, New Mexico MPS 57768
2002 05 07.29401 14 48 58.85 +07 15 25.9 18.4   704 – Lincoln Laboratory ETS, New Mexico MPS 57768
2002 05 07.30626 14 48 58.09 +07 15 27.5 19.0   704 – Lincoln Laboratory ETS, New Mexico MPS 57768
2002 06 08.18918 14 26 46.12 +06 51 41.9 20.0   644 – Palomar Mountain/NEAT MPS 382352
2002 06 08.20966 14 26 45.58 +06 51 36.4 19.9   644 – Palomar Mountain/NEAT MPS 382352
2002 06 08.23102 14 26 44.99 +06 51 30.8 20.1   644 – Palomar Mountain/NEAT MPS 382352
2003 09 25.34321 00 44 03.86 -17 10 30.9 18.1   644 – Palomar Mountain/NEAT MPS 383086
2003 09 25.36454 00 44 02.87 -17 10 42.6 18.2   644 – Palomar Mountain/NEAT MPS 383086
2003 09 25.38454 00 44 01.92 -17 10 53.2 18.3   644 – Palomar Mountain/NEAT MPS 383086
2003 10 25.17057 00 23 36.12 -19 28 20.3 19.1 R 699 – Lowell Observatory-LONEOS MPS 383086
2003 10 25.18400 00 23 35.85 -19 28 19.3   699 – Lowell Observatory-LONEOS MPS 383086
2003 10 25.19729 00 23 35.35 -19 28 21.6   699 – Lowell Observatory-LONEOS MPS 383086
2003 10 25.21070 00 23 34.97 -19 28 19.8   699 – Lowell Observatory-LONEOS MPS 383086
2003 11 26.12611 00 21 00.29 -17 10 43.9   704 – Lincoln Laboratory ETS, New Mexico MPS 407539
2003 11 26.13853 00 21 00.55 -17 10 38.3   704 – Lincoln Laboratory ETS, New Mexico MPS 407539
2003 11 26.17575 00 21 01.11 -17 10 23.2   704 – Lincoln Laboratory ETS, New Mexico MPS 407539
2004 12 12.351537 07 35 30.156 +12 52 54.75 20.57 V 645 – Apache Point-Sloan Digital Sky Survey MPS 390529
2004 12 12.355009 07 35 30.017 +12 52 55.44 21.44   645 – Apache Point-Sloan Digital Sky Survey MPS 390529
2006 03 03.34000 12 35 17.95 +13 08 35.0 20.1 V 703 – Catalina Sky Survey MPS 383086
2006 03 03.34785 12 35 17.70 +13 08 40.3 20.5 V 703 – Catalina Sky Survey MPS 383086
2006 03 03.35532 12 35 17.52 +13 08 45.3 20.2 V 703 – Catalina Sky Survey MPS 383086
2006 03 03.36294 12 35 17.26 +13 08 48.7 20.1 V 703 – Catalina Sky Survey MPS 383086
2007 07 11.57819 19 41 03.48 -14 07 11.9 18.2 V 428 – Reedy Creek MPS 212045
2007 07 11.59669 19 41 02.56 -14 07 21.3 17.9 V 428 – Reedy Creek MPS 212045
2007 07 12.50032 19 40 17.74 -14 15 48.2 18.2 V 428 – Reedy Creek MPS 212045
2007 07 12.51625 19 40 16.96 -14 15 56.5 18.3 V 428 – Reedy Creek MPS 212045
2008 12 01.35725 04 50 27.49 +03 47 18.0 19.8 V 703 – Catalina Sky Survey MPS 383086
2008 12 01.36626 04 50 26.98 +03 47 18.4 20.0 V 703 – Catalina Sky Survey MPS 383086
2008 12 01.37538 04 50 26.37 +03 47 20.1 19.9 V 703 – Catalina Sky Survey MPS 383086
2008 12 01.38435 04 50 25.83 +03 47 19.5 20.1 V 703 – Catalina Sky Survey MPS 383086
2010 01 08.46701 10 28 52.58 +14 02 51.6 21.2 V 691 – Steward Observatory, Kitt Peak-Spacewatch MPS 383086
2010 01 08.48471 10 28 52.30 +14 02 57.8 21.2 V 691 – Steward Observatory, Kitt Peak-Spacewatch MPS 383086
2010 01 08.50245 10 28 51.98 +14 03 04.2 20.9 V 691 – Steward Observatory, Kitt Peak-Spacewatch MPS 383086
2010 02 06.59974 10 13 17.91 +17 42 05.4 19.4 R 300 – Bisei Spaceguard Center-BATTeRS MPS 383086
2010 02 06.61639 10 13 17.17 +17 42 14.7 19.6 R 300 – Bisei Spaceguard Center-BATTeRS MPS 383086
2010 02 06.62474 10 13 16.74 +17 42 17.5 19.5 R 300 – Bisei Spaceguard Center-BATTeRS MPS 383086
2010 02 06.64139 10 13 15.88 +17 42 25.8 19.7 R 300 – Bisei Spaceguard Center-BATTeRS MPS 383086
2010 02 15.26060 10 06 15.62 +18 54 08.0 20.2 V 703 – Catalina Sky Survey MPS 383086
2010 02 15.26978 10 06 15.19 +18 54 12.7 20.5 V 703 – Catalina Sky Survey MPS 383086
2010 02 15.27906 10 06 14.68 +18 54 15.1 20.7 V 703 – Catalina Sky Survey MPS 383086
2010 02 15.28834 10 06 14.18 +18 54 20.0 21.5 V 703 – Catalina Sky Survey MPS 383086
2011 04 28.36902 15 56 42.38 +02 02 22.0   704 – Lincoln Laboratory ETS, New Mexico MPS 407539
2011 04 28.37949 15 56 41.91 +02 02 25.4   704 – Lincoln Laboratory ETS, New Mexico MPS 407539
2011 04 28.39002 15 56 41.51 +02 02 28.8   704 – Lincoln Laboratory ETS, New Mexico MPS 407539
2011 04 28.39231 15 56 41.40 +02 02 29.3 19.6 V 691 – Steward Observatory, Kitt Peak-Spacewatch MPS 381357
2011 04 28.41002 15 56 40.65 +02 02 34.9 19.6 V 691 – Steward Observatory, Kitt Peak-Spacewatch MPS 381357
2011 04 28.42776 15 56 39.93 +02 02 40.4 20.8 V 691 – Steward Observatory, Kitt Peak-Spacewatch MPS 381357
2011 04 30.49569 15 55 14.821 +02 12 59.80 20.5 g F51 – Pan-STARRS 1, Haleakala MPS 381357
2011 04 30.50752 15 55 14.298 +02 13 03.28 20.4 g F51 – Pan-STARRS 1, Haleakala MPS 381357
2011 04 30.52368 15 55 13.582 +02 13 07.94 19.9 r F51 – Pan-STARRS 1, Haleakala MPS 381357
2011 04 30.53481 15 55 13.079 +02 13 11.19 19.7 r F51 – Pan-STARRS 1, Haleakala MPS 381357
2011 05 08.33300 15 49 13.92 +02 46 28.6 19.6 V 691 – Steward Observatory, Kitt Peak-Spacewatch MPS 382352
2011 05 08.35075 15 49 13.00 +02 46 32.5 19.6 V 691 – Steward Observatory, Kitt Peak-Spacewatch MPS 382352
2011 05 08.36851 15 49 12.10 +02 46 36.4 19.6 V 691 – Steward Observatory, Kitt Peak-Spacewatch MPS 382352
2011 06 08.26529 15 23 19.57 +02 56 11.2 19.1 V 703 – Catalina Sky Survey MPS 384730
2011 06 08.27274 15 23 19.35 +02 56 10.9 19.3 V 703 – Catalina Sky Survey MPS 384730
2011 06 08.28030 15 23 18.85 +02 56 11.4 20.1 V 703 – Catalina Sky Survey MPS 384730
2011 06 08.28775 15 23 18.60 +02 56 08.8 19.5 V 703 – Catalina Sky Survey MPS 384730
2012 08 19.01073 02 03 19.17 -05 11 51.1 19.0 R 106 – Crni Vrh MPS 430999
2012 08 19.02706 02 03 19.63 -05 11 58.5 19.0 R 106 – Crni Vrh MPS 430999
2012 08 19.04338 02 03 20.06 -05 12 04.2 19.0 R 106 – Crni Vrh MPS 430999
2012 08 19.05973 02 03 20.48 -05 12 11.8 18.7 R 106 – Crni Vrh MPS 430999
2012 09 11.71598 02 06 21.56 -08 34 34.2 19.1 V E12 – Siding Spring Survey MPS 431808
2012 09 11.72993 02 06 21.34 -08 34 41.7 19.1 V E12 – Siding Spring Survey MPS 431808
2012 09 11.74375 02 06 21.09 -08 34 48.8 19.6 V E12 – Siding Spring Survey MPS 431808
2012 09 11.75764 02 06 20.95 -08 34 57.6 19.1 V E12 – Siding Spring Survey MPS 431808
2012 10 09.44125 01 51 12.45 -12 45 46.4 18.9 V 703 – Catalina Sky Survey MPS 437740
2012 10 09.44689 01 51 12.20 -12 45 48.6 18.7 V 703 – Catalina Sky Survey MPS 437740
2012 10 09.45258 01 51 11.91 -12 45 52.1 19.1 V 703 – Catalina Sky Survey MPS 437740
2012 10 09.45828 01 51 11.59 -12 45 54.6 18.6 V 703 – Catalina Sky Survey MPS 437740
2012 10 22.29488 01 40 38.10 -13 56 52.9 18.6 V 703 – Catalina Sky Survey MPS 439360
2012 10 22.29998 01 40 37.92 -13 56 55.8 19.4 V 703 – Catalina Sky Survey MPS 439360
2012 10 22.30507 01 40 37.59 -13 56 56.4 19.7 V 703 – Catalina Sky Survey MPS 439360
2012 10 22.31014 01 40 37.30 -13 56 56.7 19.6 V 703 – Catalina Sky Survey MPS 439360
2012 11 03.385574 01 31 26.801 -14 19 41.79 18.9 i F51 – Pan-STARRS 1, Haleakala MPS 441480
2012 11 03.398108 01 31 26.270 -14 19 41.82 18.9 i F51 – Pan-STARRS 1, Haleakala MPS 441480
2012 11 08.357497 01 28 17.662 -14 16 14.91 20.2 g F51 – Pan-STARRS 1, Haleakala MPS 443256
2012 11 08.369811 01 28 17.198 -14 16 13.91 20.1 g F51 – Pan-STARRS 1, Haleakala MPS 443256
2014 01 21.33640 07 45 59.44 +17 05 34.0 19.8 V G96 – Mt. Lemmon Survey MPS 498327
2014 01 21.34248 07 45 59.10 +17 05 36.3 19.8 V G96 – Mt. Lemmon Survey MPS 498327
2014 01 21.34856 07 45 58.75 +17 05 38.4 19.7 V G96 – Mt. Lemmon Survey MPS 498327
2014 01 21.35467 07 45 58.40 +17 05 40.9 19.9 V G96 – Mt. Lemmon Survey MPS 498327
2014 01 26.29370 07 41 31.453 +17 36 11.00 19.9 w F51 – Pan-STARRS 1, Haleakala MPS 500065
2014 01 26.30574 07 41 30.799 +17 36 15.49 19.9 w F51 – Pan-STARRS 1, Haleakala MPS 500065
2014 01 26.33507 07 41 29.203 +17 36 26.40 20.0 w F51 – Pan-STARRS 1, Haleakala MPS 500065
2014 01 26.34699 07 41 28.557 +17 36 30.80 20.0 w F51 – Pan-STARRS 1, Haleakala MPS 500065
2014 01 28.84570 07 39 18.10 +17 51 44.8 20.5   J43 – Oukaimeden Observatory, Marrakech MPS 500065
2014 01 28.85600 07 39 17.54 +17 51 48.7 20.6   J43 – Oukaimeden Observatory, Marrakech MPS 500065
